Weather History for KGVL - November, 2013

Change the Weather History Date:

Friday, November 1, 2013

  Actual Average Record
Temperature  
Mean Temperature 65 °F 57 °F  
Max Temperature 74 °F 67 °F 82 °F (1935)
Min Temperature 56 °F 47 °F 26 °F (1939)
Degree Days  
Heating Degree Days 0 8  
Month to date heating degree days 0 8  
Since 1 July heating degree days 131 166  
Cooling Degree Days 0 1  
Month to date cooling degree days 0 1  
Year to date cooling degree days 1427 1583  
Growing Degree Days 16 (Base 50)    
Moisture  
Dew Point 56 °F    
Average Humidity 67    
Maximum Humidity 93    
Minimum Humidity 41    
Precipitation  
Precipitation 0.31 in 0.10 in 2.68 in (1932)
Month to date precipitation 0.31 0.10  
Year to date precipitation 45.11  
Snow  
Snow 0.00 in - - ()
Month to date snowfall 0.0  
Since 1 July snowfall 0.0  
Since 1 September snowfall 0.0  
Snow Depth 0.00 in    
Sea Level Pressure  
Sea Level Pressure 29.80 in    
Wind  
Wind Speed 8 mph (WSW)    
Max Wind Speed 17 mph    
Max Gust Speed 29 mph    
Visibility 9 miles    
Events Rain    
T = Trace of Precipitation, MM = Missing Value Source: NWS Daily Summary

Daily Weather History Graph

Daily Weather History Graph

Search for Another Location

Airport or City:

Trip Planner

Search our weather history database for the weather conditions in past years. The results will help you decide how hot, cold, wet, or windy it might be!

Date:

Astronomy

Nov. 01, 2013 Rise Set
Actual Time 7:55 AM EDT 6:41 PM EDT
Civil Twilight 7:29 AM EDT 7:07 PM EDT
Nautical Twilight 6:59 AM EDT 7:37 PM EDT
Astronomical Twilight 6:30 AM EDT 8:06 PM EDT
Moon 5:51 AM EDT (11/1) 5:30 PM EDT (11/1)
Length of Visible Light 11h 38m
Length of Day
10h 46m
Waning Crescent, 4% of the Moon is Illuminated
Nov 1
Waning Crescent
Nov 3
New
Nov 10
First Quarter
Nov 17
Full
Nov 25
Last Quarter

Hourly Weather History & Observations

Time (EDT) Temp. Dew Point Humidity Pressure Visibility Wind Dir Wind Speed Gust Speed Precip Events Conditions
12:53 AM 68.0 °F 57.9 °F 70% 29.83 in 10.0 mi South 11.5 mph - 0.00 in Rain Light Rain
1:53 AM 64.9 °F 60.1 °F 84% 29.83 in 10.0 mi SSW 6.9 mph - 0.02 in Rain Light Rain
2:25 AM 64.4 °F 60.8 °F 88% 29.85 in 10.0 mi SSW 5.8 mph - 0.00 in   Overcast
2:53 AM 64.9 °F 60.1 °F 84% 29.80 in 10.0 mi South 5.8 mph - 0.00 in   Overcast
3:53 AM 66.0 °F 61.0 °F 84% 29.79 in 10.0 mi SSW 4.6 mph - N/A   Overcast
4:53 AM 66.9 °F 62.1 °F 84% 29.76 in 10.0 mi SSW 8.1 mph - N/A   Overcast
5:35 AM 66.2 °F 62.6 °F 88% 29.78 in 10.0 mi South 10.4 mph 17.3 mph N/A   Overcast
5:49 AM 66.2 °F 62.6 °F 88% 29.79 in 9.0 mi SSW 8.1 mph 17.3 mph 0.00 in Rain Light Rain
5:53 AM 66.9 °F 63.0 °F 87% 29.75 in 7.0 mi SSW 9.2 mph - 0.00 in Rain Light Rain
5:59 AM 66.2 °F 62.6 °F 88% 29.81 in 2.0 mi WSW 16.1 mph 21.9 mph 0.10 in Rain Heavy Rain
6:06 AM 66.2 °F 62.6 °F 88% 29.81 in 2.0 mi West 10.4 mph 23.0 mph 0.12 in Rain Rain
6:08 AM 64.4 °F 62.6 °F 94% 29.81 in 3.0 mi WSW 11.5 mph 23.0 mph 0.12 in Rain Light Rain
6:49 AM 62.6 °F 60.8 °F 94% 29.84 in 5.0 mi WNW 13.8 mph 19.6 mph 0.17 in Rain Light Rain
6:53 AM 63.0 °F 60.1 °F 90% 29.80 in 5.0 mi West 11.5 mph 19.6 mph 0.18 in Rain Light Rain
7:35 AM 62.6 °F 59.0 °F 88% 29.84 in 10.0 mi West 9.2 mph - 0.06 in Rain Light Rain
7:53 AM 62.1 °F 59.0 °F 90% 29.81 in 10.0 mi West 8.1 mph - 0.07 in Rain Light Rain
8:53 AM 61.0 °F 57.9 °F 90% 29.83 in 7.0 mi WSW 5.8 mph - 0.03 in Rain Light Rain
9:53 AM 62.1 °F 60.1 °F 93% 29.84 in 10.0 mi SW 3.5 mph - 0.02 in Rain Light Rain
10:10 AM 62.6 °F 60.8 °F 94% 29.87 in 10.0 mi SW 4.6 mph - 0.00 in   Overcast
10:30 AM 62.6 °F 60.8 °F 94% 29.86 in 10.0 mi WSW 5.8 mph - 0.00 in   Overcast
10:53 AM 64.0 °F 60.1 °F 87% 29.82 in 10.0 mi WSW 9.2 mph - 0.00 in   Overcast
11:50 AM 66.2 °F 59.0 °F 78% 29.85 in 10.0 mi WSW 5.8 mph - N/A   Overcast
11:53 AM 66.0 °F 60.1 °F 81% 29.81 in 10.0 mi WSW 9.2 mph - N/A   Overcast
12:01 PM 64.4 °F 59.0 °F 83% 29.85 in 10.0 mi West 9.2 mph - N/A   Overcast
12:53 PM 68.0 °F 55.9 °F 65% 29.78 in 10.0 mi WSW 5.8 mph - N/A   Scattered Clouds
1:53 PM 70.0 °F 54.0 °F 57% 29.76 in 10.0 mi WSW 10.4 mph - N/A   Clear
2:53 PM 73.0 °F 52.0 °F 48% 29.72 in 10.0 mi WSW 11.5 mph - N/A   Clear
3:53 PM 73.0 °F 50.0 °F 44% 29.71 in 10.0 mi SW 13.8 mph 17.3 mph N/A   Clear
4:53 PM 72.0 °F 46.0 °F 40% 29.72 in 10.0 mi WSW 11.5 mph - N/A   Clear
5:53 PM 71.1 °F 46.0 °F 41% 29.71 in 10.0 mi West 8.1 mph - N/A   Clear
6:53 PM 66.9 °F 44.1 °F 44% 29.74 in 10.0 mi West 8.1 mph - N/A   Clear
7:53 PM 63.0 °F 44.1 °F 50% 29.76 in 10.0 mi West 8.1 mph - N/A   Clear
8:53 PM 63.0 °F 45.0 °F 52% 29.79 in 10.0 mi West 8.1 mph - N/A   Clear
9:53 PM 61.0 °F 45.0 °F 56% 29.79 in 10.0 mi WNW 5.8 mph - N/A   Clear
10:53 PM 60.1 °F 46.0 °F 60% 29.81 in 10.0 mi West 8.1 mph - N/A   Clear
11:53 PM 57.0 °F 46.0 °F 67% 29.81 in 10.0 mi WNW 4.6 mph - N/A   Clear